GW6954 Weather Reports


time (UTC)temp
C
wind
direction
speed
KPH
gust
KPH
rain 1hr
cm
rain 24hr
cm
rain mn
cm
humidity
%
barometer
mb
20260507100056 0 230 6.4 14.5 0.00 0.15 0.00 93 1015.3
20260507095555 0 219 4.8 16.1 0.00 0.15 0.00 93 1015.2
20260507095054 0 233 4.8 19.3 0.00 0.15 0.00 93 1015.2
20260507094600 0 246 8.0 19.3 0.00 0.15 0.00 93 1015.3
20260507094057 0 233 8.0 20.9 0.00 0.15 0.00 93 1015.3
20260507093556 0 250 8.0 20.9 0.00 0.15 0.00 93 1015.2
20260507093054 0 281 9.7 20.9 0.00 0.15 0.00 94 1015.3
20260507092559 0 240 11.3 20.9 0.00 0.15 0.00 94 1015.2
20260507092056 0 237 6.4 16.1 0.00 0.15 0.00 94 1015.3
20260507091600 0 270 8.0 16.1 0.00 0.15 0.00 95 1015.1
20260507091056 0 218 3.2 14.5 0.00 0.15 0.00 95 1015.2
20260507090555 0 267 6.4 20.9 0.00 0.15 0.00 94 1015.2
20260507085553 0 259 8.0 20.9 0.00 0.15 0.00 94 1015.0
20260507085058 0 263 3.2 20.9 0.00 0.15 0.00 94 1015.1
20260507084558 0 177 9.7 25.7 0.00 0.15 0.00 94 1015.2
20260507084055 0 265 11.3 25.7 0.00 0.15 0.00 94 1014.9
20260507083553 0 238 4.8 17.7 0.00 0.15 0.00 94 1014.9
20260507083059 0 245 6.4 16.1 0.00 0.15 0.00 94 1014.7
20260507082551 0 246 8.0 16.1 0.00 0.15 0.00 95 1014.8
20260507082056 0 272 6.4 14.5 0.00 0.15 0.00 94 1014.7
20260507081553 0 174 3.2 11.3 0.00 0.15 0.00 95 1014.7
20260507081059 0 225 3.2 8.0 0.00 0.15 0.00 94 1014.6
20260507080556 0 254 1.6 11.3 0.00 0.15 0.00 95 1014.7
20260507080059 0 236 4.8 14.5 0.00 0.15 0.00 94 1014.7
20260507075556 0 263 3.2 14.5 0.00 0.15 0.15 94 1014.7
20260507075055 0 234 4.8 14.5 0.00 0.15 0.15 93 1014.7
20260507074554 0 280 6.4 14.5 0.00 0.15 0.15 93 1014.5
20260507074055 0 193 1.6 6.4 0.00 0.15 0.15 93 1014.5
20260507073556 0 249 1.6 8.0 0.00 0.15 0.15 93 1014.4
20260507073107 0 252 3.2 8.0 0.00 0.15 0.15 92 1014.5
20260507072556 0 272 3.2 8.0 0.00 0.15 0.15 92 1014.6
20260507072057 0 252 1.6 6.4 0.00 0.15 0.15 92 1014.5
20260507071557 0 249 0.0 6.4 0.00 0.15 0.15 93 1014.5
20260507071056 0 166 0.0 4.8 0.03 0.15 0.15 93 1014.4
20260507070556 0 0 0.0 3.2 0.03 0.15 0.15 93 1014.3
20260507070104 0 143 0.0 9.7 0.03 0.15 0.15 92 1014.3
20260507065558 0 184 0.0 9.7 0.03 0.15 0.15 92 1014.3
20260507065055 1 0 1.6 11.3 0.03 0.15 0.15 92 1014.2
20260507064558 1 242 1.6 11.3 0.03 0.15 0.15 91 1014.2
20260507064057 1 269 1.6 11.3 0.03 0.15 0.15 91 1014.1
20260507063554 1 0 0.0 4.8 0.03 0.15 0.15 92 1014.2
20260507063054 1 0 0.0 4.8 0.03 0.15 0.15 92 1014.0
20260507062553 1 96 1.6 8.0 0.03 0.15 0.15 92 1014.1
20260507062055 1 142 0.0 8.0 0.03 0.15 0.15 92 1014.0
20260507061558 1 94 1.6 8.0 0.03 0.15 0.15 92 1014.1
20260507061056 1 144 0.0 6.4 0.00 0.13 0.13 92 1014.0
20260507060556 1 202 0.0 6.4 0.00 0.13 0.13 92 1014.1
20260507060059 1 263 0.0 6.4 0.00 0.13 0.13 92 1014.0
20260507055552 1 207 0.0 6.4 0.00 0.13 0.13 91 1013.8
20260507055051 1 243 0.0 6.4 0.03 0.13 0.13 91 1013.9
20260507054554 1 0 1.6 6.4 0.03 0.13 0.13 91 1013.9
20260507054053 1 185 0.0 9.7 0.03 0.13 0.13 91 1013.7
20260507053553 1 0 0.0 9.7 0.03 0.13 0.13 90 1013.7
20260507053116 1 285 1.6 6.4 0.03 0.13 0.13 89 1013.7
20260507052553 1 0 3.2 6.4 0.05 0.13 0.13 89 1013.6
20260507052053 1 355 0.0 6.4 0.05 0.13 0.13 91 1013.6
20260507051557 1 69 0.0 6.4 0.08 0.13 0.13 91 1013.6
20260507051052 1 92 1.6 6.4 0.10 0.13 0.13 91 1013.7
20260507050552 1 0 0.0 6.4 0.10 0.13 0.13 92 1013.6
20260507050054 1 0 1.6 6.4 0.10 0.13 0.13 92 1013.7
20260507045553 1 77 1.6 6.4 0.13 0.13 0.13 93 1013.6
20260507045052 0 84 1.6 4.8 0.10 0.10 0.10 93 1013.7
20260507044610 0 67 1.6 4.8 0.10 0.10 0.10 94 1013.7
20260507044056 0 0 0.0 6.4 0.10 0.10 0.10 94 1013.7
20260507043553 0 164 1.6 8.0 0.10 0.10 0.10 93 1013.7
20260507043056 0 150 3.2 8.0 0.10 0.10 0.10 93 1013.7
20260507042552 0 152 1.6 8.0 0.08 0.08 0.08 93 1013.7
20260507042051 1 261 3.2 17.7 0.08 0.08 0.08 93 1013.7
20260507041555 1 252 4.8 17.7 0.05 0.05 0.05 93 1013.7
20260507041052 1 230 8.0 20.9 0.03 0.03 0.03 93 1013.6
20260507040553 1 284 8.0 24.1 0.03 0.03 0.03 92 1013.6
20260507035552 2 331 9.7 17.7 0.00 0.00 0.00 89 1013.5
20260507035053 2 248 4.8 16.1 0.00 0.00 0.00 88 1013.4
20260507034602 2 271 1.6 14.5 0.00 0.00 0.00 87 1013.3
20260507034052 2 290 4.8 14.5 0.00 0.00 0.00 82 1013.4
20260507033552 2 0 3.2 12.9 0.00 0.00 0.00 82 1013.1
20260507033110 3 124 3.2 12.9 0.00 0.00 0.00 81 1013.0
20260507032554 3 151 6.4 14.5 0.00 0.00 0.00 80 1013.0
20260507032053 3 157 4.8 14.5 0.00 0.00 0.00 79 1012.8
20260507031601 2 131 3.2 11.3 0.00 0.00 0.00 82 1012.9
20260507031053 3 266 3.2 6.4 0.00 0.00 0.00 85 1012.8
20260507030553 3 265 3.2 11.3 0.00 0.00 0.00 85 1012.8
20260507030108 3 254 3.2 11.3 0.00 0.00 0.00 83 1012.8
20260507025551 3 298 1.6 9.7 0.00 0.00 0.00 82 1012.8
20260507025052 3 246 3.2 9.7 0.00 0.00 0.00 83 1012.8
20260507024610 3 255 4.8 9.7 0.00 0.00 0.00 82 1012.7
20260507024052 3 279 3.2 9.7 0.00 0.00 0.00 83 1012.7
20260507023553 3 217 3.2 9.7 0.00 0.00 0.00 82 1012.7
20260507023056 3 238 3.2 11.3 0.00 0.00 0.00 81 1012.7
20260507022553 3 274 1.6 11.3 0.00 0.00 0.00 78 1012.5
20260507022054 3 254 4.8 11.3 0.00 0.00 0.00 78 1012.7
20260507021557 3 268 1.6 6.4 0.00 0.00 0.00 84 1012.5
20260507021055 3 278 3.2 8.0 0.00 0.00 0.00 83 1012.4
20260507020554 4 0 3.2 11.3 0.00 0.00 0.00 82 1012.4
20260507020101 4 265 3.2 11.3 0.00 0.00 0.00 81 1012.5
20260507015553 4 286 1.6 9.7 0.00 0.00 0.00 75 1012.4
20260507015055 4 173 1.6 9.7 0.00 0.00 0.00 74 1012.5
20260507014559 3 169 3.2 9.7 0.00 0.00 0.00 78 1012.4
20260507014052 3 160 0.0 6.4 0.00 0.00 0.00 83 1012.4
20260507013556 3 267 1.6 6.4 0.00 0.00 0.00 84 1012.4
20260507013100 3 256 1.6 6.4 0.00 0.00 0.00 84 1012.4
20260507012553 3 271 3.2 8.0 0.00 0.00 0.00 85 1012.4
20260507012053 3 242 3.2 9.7 0.00 0.00 0.00 84 1012.4
20260507011558 3 277 4.8 9.7 0.00 0.00 0.00 85 1012.4
20260507011053 2 289 1.6 9.7 0.00 0.00 0.00 86 1012.4
20260507010554 2 290 3.2 9.7 0.00 0.00 0.00 87 1012.4
20260507010054 3 265 4.8 14.5 0.00 0.00 0.00 86 1012.5
20260507005552 3 273 6.4 14.5 0.00 0.00 0.00 85 1012.4
20260507005054 3 287 6.4 14.5 0.00 0.00 0.00 86 1012.4
20260507004554 3 290 6.4 14.5 0.00 0.00 0.00 86 1012.3
20260507004053 3 274 8.0 14.5 0.00 0.00 0.00 85 1012.4
20260507003552 3 284 4.8 11.3 0.00 0.00 0.00 85 1012.2
20260507003101 3 263 4.8 14.5 0.00 0.00 0.00 86 1012.2
20260507002556 3 289 6.4 14.5 0.00 0.00 0.00 86 1012.2
20260507002052 3 269 3.2 16.1 0.00 0.00 0.00 86 1012.2
20260507001602 3 276 6.4 16.1 0.00 0.00 0.00 86 1012.1
20260507001054 3 274 8.0 12.9 0.00 0.00 0.00 85 1012.2
20260507000554 3 258 3.2 12.9 0.00 0.00 0.00 84 1012.2
20260507000101 3 283 6.4 14.5 0.00 0.00 0.00 83 1012.1
20260506235553 3 254 8.0 17.7 0.00 0.00 0.00 83 1012.1
20260506235051 3 282 8.0 17.7 0.00 0.00 0.00 82 1012.0
20260506234608 3 285 9.7 16.1 0.00 0.00 0.00 82 1011.9
20260506234056 4 319 9.7 17.7 0.00 0.00 0.00 80 1011.9
20260506233553 4 268 9.7 17.7 0.00 0.00 0.00 80 1011.8
20260506233057 3 294 11.3 17.7 0.00 0.00 0.00 80 1011.8
20260506232552 3 294 11.3 24.1 0.00 0.00 0.00 78 1011.8
20260506232055 3 276 9.7 24.1 0.00 0.00 0.00 76 1011.8
20260506231556 3 287 12.9 24.1 0.00 0.00 0.00 77 1011.7
20260506231054 3 270 12.9 22.5 0.00 0.00 0.00 78 1011.8
20260506230554 3 292 12.9 22.5 0.00 0.00 0.00 78 1011.7
20260506230104 4 294 9.7 19.3 0.00 0.00 0.00 77 1011.8
20260506225555 3 279 11.3 19.3 0.00 0.00 0.00 77 1011.8
20260506225055 3 281 9.7 17.7 0.00 0.00 0.00 77 1011.7
20260506224554 3 222 9.7 14.5 0.00 0.00 0.00 77 1011.7
20260506224055 3 269 6.4 14.5 0.00 0.00 0.00 78 1011.7
20260506223552 3 274 4.8 11.3 0.00 0.00 0.00 78 1011.6
20260506223057 3 269 4.8 11.3 0.00 0.00 0.00 78 1011.6
20260506222555 3 292 4.8 12.9 0.00 0.00 0.00 77 1011.6
20260506222055 4 281 6.4 12.9 0.00 0.00 0.00 76 1011.5
20260506221555 5 285 0.0 4.8 0.00 0.00 0.00 75 1011.4
20260506221052 5 43 0.0 9.7 0.00 0.00 0.00 76 1011.4
20260506220553 5 40 1.6 9.7 0.00 0.00 0.00 77 1011.4
20260506220100 5 283 0.0 8.0 0.00 0.00 0.00 77 1011.3
20260506215554 5 294 1.6 8.0 0.00 0.00 0.00 76 1011.4
20260506215052 5 0 0.0 4.8 0.00 0.00 0.00 77 1011.4
20260506214558 5 0 0.0 4.8 0.00 0.00 0.00 77 1011.3
20260506214052 5 0 0.0 4.8 0.00 0.00 0.00 77 1011.3
20260506213553 5 0 1.6 6.4 0.00 0.00 0.00 76 1011.2
20260506213053 5 0 0.0 6.4 0.00 0.00 0.00 76 1011.2
20260506212553 5 0 1.6 6.4 0.00 0.00 0.00 76 1011.1
20260506212053 5 29 1.6 9.7 0.00 0.00 0.00 75 1011.1
20260506211553 5 0 1.6 14.5 0.00 0.00 0.00 73 1011.1
20260506211053 5 271 1.6 14.5 0.00 0.00 0.00 73 1011.2
20260506210552 5 279 4.8 14.5 0.00 0.00 0.00 68 1011.0
20260506210057 5 309 3.2 11.3 0.00 0.00 0.00 67 1011.0
20260506205552 5 283 1.6 6.4 0.00 0.00 0.00 69 1010.9
20260506205052 5 298 0.0 9.7 0.00 0.00 0.00 76 1011.0
20260506204556 5 24 3.2 9.7 0.00 0.00 0.00 75 1010.9
20260506204053 6 40 1.6 11.3 0.00 0.00 0.00 73 1010.8
20260506203553 5 0 0.0 12.9 0.00 0.00 0.00 72 1010.9
20260506203055 5 79 3.2 12.9 0.00 0.00 0.00 77 1010.9
20260506202553 5 286 1.6 8.0 0.00 0.00 0.00 78 1010.7
20260506202053 5 248 1.6 6.4 0.00 0.00 0.00 78 1010.7
20260506201557 5 255 1.6 6.4 0.00 0.00 0.00 80 1010.8
20260506201054 4 299 1.6 6.4 0.00 0.00 0.00 79 1010.6
20260506200554 5 283 0.0 6.4 0.00 0.00 0.00 79 1010.5
20260506200104 4 275 1.6 6.4 0.00 0.00 0.00 80 1010.5
20260506195553 4 30 1.6 6.4 0.00 0.00 0.00 80 1010.4
20260506195053 4 17 0.0 3.2 0.00 0.00 0.00 80 1010.4
20260506194557 3 0 0.0 6.4 0.00 0.00 0.00 82 1010.3
20260506194053 3 0 1.6 9.7 0.00 0.00 0.00 82 1010.4
20260506193558 3 281 3.2 9.7 0.00 0.00 0.00 82 1010.4
20260506193108 3 26 0.0 3.2 0.00 0.00 0.00 80 1010.4
20260506192553 3 0 0.0 6.4 0.00 0.00 0.00 81 1010.4
20260506192053 3 281 1.6 11.3 0.00 0.00 0.00 81 1010.3
20260506191600 3 290 3.2 11.3 0.00 0.00 0.00 81 1010.4
20260506191054 2 293 4.8 11.3 0.00 0.00 0.00 82 1010.3
20260506190554 2 294 6.4 11.3 0.00 0.00 0.00 83 1010.3
20260506185553 3 290 1.6 9.7 0.00 0.00 0.00 83 1010.3
20260506185053 2 284 4.8 9.7 0.00 0.00 0.00 83 1010.3
20260506184555 3 281 0.0 9.7 0.00 0.00 0.00 83 1010.3
20260506184053 2 288 1.6 6.4 0.00 0.00 0.00 83 1010.2
20260506183555 2 289 0.0 6.4 0.00 0.00 0.00 83 1010.2
20260506183056 2 289 1.6 6.4 0.00 0.00 0.00 84 1010.3
20260506182552 2 284 0.0 8.0 0.00 0.00 0.00 85 1010.2
20260506182052 2 0 1.6 8.0 0.00 0.00 0.00 84 1010.1
20260506181605 2 281 0.0 6.4 0.00 0.00 0.00 85 1010.1
20260506181053 2 333 0.0 4.8 0.00 0.00 0.00 85 1010.0
20260506180555 2 290 1.6 9.7 0.00 0.00 0.00 85 1010.0
20260506180058 2 0 1.6 9.7 0.00 0.00 0.00 85 1010.1
20260506175552 2 280 1.6 8.0 0.00 0.00 0.00 85 1010.0
20260506175052 2 326 1.6 4.8 0.00 0.00 0.00 85 1009.9
20260506174555 2 285 3.2 4.8 0.00 0.00 0.00 84 1009.9
20260506174052 2 0 1.6 6.4 0.00 0.00 0.00 85 1009.9
20260506173554 1 290 3.2 6.4 0.00 0.00 0.00 85 1009.9
20260506173124 1 288 3.2 4.8 0.00 0.00 0.00 84 1009.8
20260506172551 1 294 1.6 4.8 0.00 0.00 0.00 85 1009.7
20260506172055 1 284 0.0 4.8 0.00 0.00 0.00 84 1009.7
20260506171617 1 282 0.0 4.8 0.00 0.00 0.00 84 1009.6
20260506171055 1 282 3.2 6.4 0.00 0.00 0.00 84 1009.6
20260506170552 1 282 1.6 6.4 0.00 0.00 0.00 84 1009.6
20260506170056 1 262 3.2 6.4 0.00 0.00 0.00 84 1009.6
20260506165552 1 287 1.6 6.4 0.00 0.00 0.00 84 1009.6
20260506165053 1 287 3.2 6.4 0.00 0.00 0.00 85 1009.5
20260506164601 1 0 1.6 4.8 0.00 0.00 0.00 85 1009.4
20260506164053 1 0 0.0 4.8 0.00 0.00 0.00 85 1009.4
20260506163552 1 277 3.2 6.4 0.00 0.00 0.00 84 1009.4
20260506163105 1 271 0.0 6.4 0.00 0.00 0.00 84 1009.4
20260506162552 1 271 3.2 6.4 0.00 0.00 0.00 84 1009.3
20260506162053 1 241 1.6 4.8 0.00 0.00 0.00 84 1009.3
20260506161624 1 0 0.0 3.2 0.00 0.00 0.00 84 1009.2
20260506161052 1 0 0.0 3.2 0.00 0.00 0.00 84 1009.0
20260506160554 1 187 0.0 3.2 0.00 0.00 0.00 85 1009.2
20260506160056 1 246 1.6 3.2 0.00 0.00 0.00 85 1009.2
20260506155555 0 188 0.0 3.2 0.00 0.00 0.00 85 1009.2
20260506155053 0 213 0.0 3.2 0.00 0.00 0.00 85 1009.0
20260506154600 0 0 0.0 6.4 0.00 0.00 0.00 84 1009.0
20260506154053 0 0 1.6 6.4 0.00 0.00 0.00 84 1009.0
20260506153554 1 277 1.6 6.4 0.00 0.00 0.00 83 1009.0
20260506153058 1 274 1.6 6.4 0.00 0.00 0.00 83 1009.0
20260506152552 1 261 3.2 6.4 0.00 0.00 0.00 81 1009.0
20260506152053 1 0 1.6 6.4 0.00 0.00 0.00 80 1009.0
20260506151554 1 279 1.6 4.8 0.00 0.00 0.00 79 1009.1
20260506151053 1 0 0.0 4.8 0.00 0.00 0.00 79 1008.9
20260506150554 1 0 1.6 4.8 0.00 0.00 0.00 78 1008.9
20260506150056 2 0 0.0 6.4 0.00 0.00 0.00 78 1008.9
20260506145554 2 0 1.6 6.4 0.00 0.00 0.00 77 1008.8
20260506145052 2 0 0.0 3.2 0.00 0.00 0.00 76 1008.8
20260506144554 2 0 0.0 4.8 0.00 0.00 0.00 76 1008.8
20260506144053 2 0 0.0 4.8 0.00 0.00 0.00 77 1008.8
20260506143554 2 178 0.0 11.3 0.00 0.00 0.00 77 1008.7
20260506143053 2 148 1.6 11.3 0.00 0.00 0.00 77 1008.7
20260506142553 2 270 1.6 11.3 0.00 0.00 0.00 77 1008.6
20260506142057 1 248 3.2 11.3 0.00 0.00 0.00 77 1008.6
20260506141555 1 40 1.6 8.0 0.00 0.00 0.00 78 1008.7
20260506141053 1 54 1.6 6.4 0.00 0.00 0.00 78 1008.8
20260506140554 1 48 3.2 6.4 0.00 0.00 0.00 78 1008.8
20260506140058 1 0 3.2 4.8 0.00 0.00 0.00 78 1008.8
20260506135553 1 54 0.0 6.4 0.00 0.00 0.00 77 1008.8
20260506135053 1 54 1.6 6.4 0.00 0.00 0.00 77 1008.9
20260506134557 2 60 1.6 12.9 0.00 0.00 0.00 77 1008.8
20260506134054 2 44 1.6 12.9 0.00 0.00 0.00 76 1008.8
20260506133554 2 42 3.2 9.7 0.00 0.00 0.00 76 1008.7
20260506133100 1 47 1.6 9.7 0.00 0.00 0.00 76 1008.7
20260506132554 2 88 3.2 9.7 0.00 0.00 0.00 76 1008.6
20260506132054 2 38 3.2 8.0 0.00 0.00 0.00 76 1008.7
20260506131602 2 0 0.0 8.0 0.00 0.00 0.00 76 1008.6
20260506131054 2 0 1.6 8.0 0.00 0.00 0.00 76 1008.5
20260506130554 2 30 1.6 11.3 0.00 0.00 0.00 76 1008.6
20260506130117 2 53 1.6 11.3 0.00 0.00 0.00 75 1008.5
20260506125553 2 91 1.6 11.3 0.00 0.00 0.00 75 1008.6
20260506125053 2 0 0.0 8.0 0.00 0.00 0.00 75 1008.6
20260506124600 2 0 0.0 16.1 0.00 0.00 0.00 74 1008.5
20260506124053 2 121 3.2 16.1 0.00 0.00 0.00 75 1008.5
20260506123553 2 136 3.2 16.1 0.00 0.00 0.00 75 1008.5
20260506123057 2 97 1.6 12.9 0.00 0.00 0.00 75 1008.5
20260506122554 2 139 1.6 12.9 0.00 0.00 0.00 75 1008.6
20260506122053 2 131 3.2 12.9 0.00 0.00 0.00 75 1008.5
20260506121553 2 88 3.2 9.7 0.00 0.00 0.00 74 1008.5
20260506121052 2 128 1.6 9.7 0.00 0.00 0.00 74 1008.4
20260506120552 2 122 1.6 9.7 0.00 0.00 0.00 74 1008.5
20260506120105 2 161 3.2 8.0 0.00 0.00 0.00 74 1008.4
20260506115553 2 163 3.2 14.5 0.00 0.00 0.00 74 1008.4
20260506115051 2 0 3.2 16.1 0.00 0.00 0.00 74 1008.3
20260506114556 2 114 4.8 16.1 0.00 0.00 0.00 75 1008.1
20260506114055 2 148 3.2 16.1 0.00 0.00 0.00 75 1008.2
20260506113553 2 186 4.8 14.5 0.00 0.00 0.00 75 1008.2
20260506113059 2 120 3.2 14.5 0.00 0.00 0.00 75 1008.2
20260506112555 2 96 1.6 17.7 0.00 0.00 0.00 75 1008.2
20260506112055 2 209 4.8 17.7 0.00 0.00 0.00 75 1008.2
20260506111557 2 126 6.4 17.7 0.00 0.00 0.00 74 1008.3
20260506111054 2 128 8.0 16.1 0.00 0.00 0.00 74 1008.2
20260506110552 2 128 6.4 17.7 0.00 0.00 0.00 74 1008.2
20260506105555 2 161 4.8 17.7 0.00 0.00 0.00 74 1008.1
20260506105056 2 202 6.4 17.7 0.00 0.00 0.00 74 1008.1
20260506104556 2 116 6.4 17.7 0.00 0.00 0.00 74 1008.1
20260506104052 2 227 6.4 17.7 0.00 0.00 0.00 74 1008.1
20260506103555 2 125 6.4 17.7 0.00 0.00 0.00 74 1008.1
20260506103058 2 155 4.8 14.5 0.00 0.00 0.00 74 1008.1
20260506102554 2 94 4.8 16.1 0.00 0.00 0.00 73 1008.1
20260506102054 2 180 6.4 16.1 0.00 0.00 0.00 73 1008.0
20260506101559 2 101 6.4 16.1 0.00 0.00 0.00 73 1007.9
20260506101053 2 138 3.2 12.9 0.00 0.00 0.00 73 1007.9
20260506100553 2 162 3.2 12.9 0.00 0.00 0.00 72 1007.9